Year,Month,Day,Hour,Minute,Value (Times are PST for temperature in C)
2012,07,05,00,00,9.80
2012,07,05,00,01,9.80
2012,07,05,00,02,9.80
2012,07,05,00,03,9.70
2012,07,05,00,04,9.70
2012,07,05,00,05,9.70
2012,07,05,00,06,9.70
2012,07,05,00,07,9.70
2012,07,05,00,08,9.60
2012,07,05,00,09,9.60
2012,07,05,00,10,9.60
2012,07,05,00,11,9.60
2012,07,05,00,12,9.60
2012,07,05,00,13,9.60
2012,07,05,00,14,9.60
2012,07,05,00,15,9.50
2012,07,05,00,16,9.50
2012,07,05,00,17,9.50
2012,07,05,00,18,9.50
2012,07,05,00,19,9.50
2012,07,05,00,20,9.40
2012,07,05,00,21,9.40
2012,07,05,00,22,9.40
2012,07,05,00,23,9.40
2012,07,05,00,24,9.40
2012,07,05,00,25,9.40
2012,07,05,00,26,9.40
2012,07,05,00,27,9.40
2012,07,05,00,28,9.40
2012,07,05,00,29,9.40
2012,07,05,00,30,9.30
2012,07,05,00,31,9.30
2012,07,05,00,32,9.30
2012,07,05,00,33,9.30
2012,07,05,00,34,9.30
2012,07,05,00,35,9.30
2012,07,05,00,36,9.30
2012,07,05,00,37,9.30
2012,07,05,00,38,9.20
2012,07,05,00,39,9.20
2012,07,05,00,40,9.20
2012,07,05,00,41,9.20
2012,07,05,00,42,9.20
2012,07,05,00,43,9.20
2012,07,05,00,44,9.20
2012,07,05,00,45,9.10
2012,07,05,00,46,9.10
2012,07,05,00,47,9.10
2012,07,05,00,48,9.10
2012,07,05,00,49,9.10
2012,07,05,00,50,9.10
2012,07,05,00,51,9.10
2012,07,05,00,52,9.10
2012,07,05,00,53,9.10
2012,07,05,00,54,9.10
2012,07,05,00,55,9.00
2012,07,05,00,56,9.00
2012,07,05,00,57,9.00
2012,07,05,00,58,9.00
2012,07,05,00,59,9.00
2012,07,05,01,00,8.90
2012,07,05,01,01,9.00
2012,07,05,01,02,8.90
2012,07,05,01,03,8.90
2012,07,05,01,04,8.90
2012,07,05,01,05,8.90
2012,07,05,01,06,8.90
2012,07,05,01,07,8.90
2012,07,05,01,08,8.90
2012,07,05,01,09,8.90
2012,07,05,01,10,8.90
2012,07,05,01,11,8.90
2012,07,05,01,12,8.80
2012,07,05,01,13,8.80
2012,07,05,01,14,8.80
2012,07,05,01,15,8.80
2012,07,05,01,16,8.80
2012,07,05,01,17,8.80
2012,07,05,01,18,8.80
2012,07,05,01,19,8.80
2012,07,05,01,20,8.70
2012,07,05,01,21,8.70
2012,07,05,01,22,8.70
2012,07,05,01,23,8.70
2012,07,05,01,24,8.70
2012,07,05,01,25,8.70
2012,07,05,01,26,8.70
2012,07,05,01,27,8.70
2012,07,05,01,28,8.70
2012,07,05,01,29,8.60
2012,07,05,01,30,8.60
2012,07,05,01,31,8.60
2012,07,05,01,32,8.60
2012,07,05,01,33,8.60
2012,07,05,01,34,8.60
2012,07,05,01,35,8.60
2012,07,05,01,36,8.50
2012,07,05,01,37,8.50
2012,07,05,01,38,8.50
2012,07,05,01,39,8.50
2012,07,05,01,40,8.50
2012,07,05,01,41,8.50
2012,07,05,01,42,8.40
2012,07,05,01,43,8.40
2012,07,05,01,44,8.40
2012,07,05,01,45,8.40
2012,07,05,01,46,8.40
2012,07,05,01,47,8.40
2012,07,05,01,48,8.30
2012,07,05,01,49,8.30
2012,07,05,01,50,8.30
2012,07,05,01,51,8.30
2012,07,05,01,52,8.30
2012,07,05,01,53,8.30
2012,07,05,01,54,8.30
2012,07,05,01,55,8.30
2012,07,05,01,56,8.30
2012,07,05,01,57,8.20
2012,07,05,01,58,8.20
2012,07,05,01,59,8.20
2012,07,05,02,00,8.20
2012,07,05,02,01,8.20
2012,07,05,02,02,8.20
2012,07,05,02,03,8.20
2012,07,05,02,04,8.10
2012,07,05,02,05,8.10
2012,07,05,02,06,8.10
2012,07,05,02,07,8.10
2012,07,05,02,08,8.10
2012,07,05,02,09,8.10
2012,07,05,02,10,8.10
2012,07,05,02,11,8.10
2012,07,05,02,12,8.10
2012,07,05,02,13,8.10
2012,07,05,02,14,8.10
2012,07,05,02,15,8.10
2012,07,05,02,16,8.10
2012,07,05,02,17,8.10
2012,07,05,02,18,8.10
2012,07,05,02,19,8.10
2012,07,05,02,20,8.10
2012,07,05,02,21,8.00
2012,07,05,02,22,8.00
2012,07,05,02,23,8.00
2012,07,05,02,24,8.00
2012,07,05,02,25,8.00
2012,07,05,02,26,8.00
2012,07,05,02,27,8.00
2012,07,05,02,28,8.00
2012,07,05,02,29,8.00
2012,07,05,02,30,8.00
2012,07,05,02,31,8.00
2012,07,05,02,32,8.00
2012,07,05,02,33,8.00
2012,07,05,02,34,8.00
2012,07,05,02,35,8.00
2012,07,05,02,36,8.00
2012,07,05,02,37,8.00
2012,07,05,02,38,8.00
2012,07,05,02,39,7.90
2012,07,05,02,40,7.90
2012,07,05,02,41,7.90
2012,07,05,02,42,7.90
2012,07,05,02,43,7.90
2012,07,05,02,44,7.90
2012,07,05,02,45,7.90
2012,07,05,02,46,7.90
2012,07,05,02,47,7.90
2012,07,05,02,48,7.90
2012,07,05,02,49,7.80
2012,07,05,02,50,7.80
2012,07,05,02,51,7.80
2012,07,05,02,52,7.80
2012,07,05,02,53,7.80
2012,07,05,02,54,7.80
2012,07,05,02,55,7.80
2012,07,05,02,56,7.80
2012,07,05,02,57,7.80
2012,07,05,02,58,7.80
2012,07,05,02,59,7.80
2012,07,05,03,00,7.80
2012,07,05,03,01,7.80
2012,07,05,03,02,7.80
2012,07,05,03,06,7.80
2012,07,05,03,07,7.80
2012,07,05,03,08,7.80
2012,07,05,03,09,7.80
2012,07,05,03,10,7.80
2012,07,05,03,11,7.80
2012,07,05,03,12,7.80
2012,07,05,03,13,7.80
2012,07,05,03,14,7.80
2012,07,05,03,15,7.80
2012,07,05,03,16,7.80
2012,07,05,03,17,7.80
2012,07,05,03,18,7.80
2012,07,05,03,19,7.80
2012,07,05,03,20,7.80
2012,07,05,03,21,7.80
2012,07,05,03,22,7.80
2012,07,05,03,23,7.80
2012,07,05,03,24,7.80
2012,07,05,03,25,7.80
2012,07,05,03,26,7.70
2012,07,05,03,27,7.70
2012,07,05,03,28,7.70
2012,07,05,03,29,7.70
2012,07,05,03,30,7.70
2012,07,05,03,31,7.70
2012,07,05,03,32,7.70
2012,07,05,03,33,7.70
2012,07,05,03,34,7.70
2012,07,05,03,35,7.70
2012,07,05,03,36,7.60
2012,07,05,03,37,7.60
2012,07,05,03,38,7.60
2012,07,05,03,39,7.60
2012,07,05,03,40,7.60
2012,07,05,03,41,7.60
2012,07,05,03,42,7.60
2012,07,05,03,43,7.60
2012,07,05,03,44,7.60
2012,07,05,03,45,7.60
2012,07,05,03,46,7.60
2012,07,05,03,47,7.60
2012,07,05,03,48,7.60
2012,07,05,03,49,7.60
2012,07,05,03,50,7.60
2012,07,05,03,51,7.60
2012,07,05,03,52,7.60
2012,07,05,03,53,7.60
2012,07,05,03,54,7.60
2012,07,05,03,55,7.50
2012,07,05,03,56,7.50
2012,07,05,03,57,7.50
2012,07,05,03,58,7.50
2012,07,05,03,59,7.50
2012,07,05,04,00,7.50
2012,07,05,04,01,7.50
2012,07,05,04,02,7.40
2012,07,05,04,03,7.40
2012,07,05,04,04,7.40
2012,07,05,04,05,7.40
2012,07,05,04,06,7.40
2012,07,05,04,07,7.40
2012,07,05,04,08,7.50
2012,07,05,04,09,7.40
2012,07,05,04,10,7.40
2012,07,05,04,11,7.40
2012,07,05,04,12,7.40
2012,07,05,04,13,7.40
2012,07,05,04,14,7.40
2012,07,05,04,15,7.40
2012,07,05,04,16,7.40
2012,07,05,04,17,7.40
2012,07,05,04,18,7.40
2012,07,05,04,19,7.40
2012,07,05,04,20,7.40
2012,07,05,04,21,7.40
2012,07,05,04,22,7.40
2012,07,05,04,23,7.40
2012,07,05,04,24,7.40
2012,07,05,04,25,7.40
2012,07,05,04,26,7.40
2012,07,05,04,27,7.40
2012,07,05,04,28,7.40
2012,07,05,04,29,7.40
2012,07,05,04,30,7.30
2012,07,05,04,31,7.30
2012,07,05,04,32,7.30
2012,07,05,04,33,7.30
2012,07,05,04,34,7.30
2012,07,05,04,35,7.30
2012,07,05,04,36,7.30
2012,07,05,04,37,7.30
2012,07,05,04,38,7.30
2012,07,05,04,39,7.20
2012,07,05,04,40,7.20
2012,07,05,04,41,7.20
2012,07,05,04,42,7.20
2012,07,05,04,43,7.20
2012,07,05,04,44,7.20
2012,07,05,04,45,7.20
2012,07,05,04,46,7.20
2012,07,05,04,47,7.20
2012,07,05,04,48,7.20
2012,07,05,04,49,7.20
2012,07,05,04,50,7.20
2012,07,05,04,51,7.20
2012,07,05,04,52,7.20
2012,07,05,04,53,7.20
2012,07,05,04,54,7.20
2012,07,05,04,55,7.20
2012,07,05,04,56,7.20
2012,07,05,04,57,7.20
2012,07,05,04,58,7.20
2012,07,05,04,59,7.20
2012,07,05,05,00,7.20
2012,07,05,05,01,7.20
2012,07,05,05,02,7.20
2012,07,05,05,03,7.20
2012,07,05,05,04,7.20
2012,07,05,05,05,7.20
2012,07,05,05,06,7.20
2012,07,05,05,07,7.20
2012,07,05,05,08,7.20
2012,07,05,05,09,7.20
2012,07,05,05,10,7.20
2012,07,05,05,11,7.20
2012,07,05,05,12,7.20
2012,07,05,05,13,7.20
2012,07,05,05,14,7.20
2012,07,05,05,15,7.20
2012,07,05,05,16,7.20
2012,07,05,05,17,7.20
2012,07,05,05,18,7.20
2012,07,05,05,19,7.20
2012,07,05,05,20,7.20
2012,07,05,05,21,7.20
2012,07,05,05,22,7.20
2012,07,05,05,23,7.20
2012,07,05,05,24,7.10
2012,07,05,05,25,7.10
2012,07,05,05,26,7.10
2012,07,05,05,27,7.10
2012,07,05,05,28,7.10
2012,07,05,05,29,7.10
2012,07,05,05,30,7.10
2012,07,05,05,31,7.10
2012,07,05,05,32,7.20
2012,07,05,05,33,7.20
2012,07,05,05,34,7.10
2012,07,05,05,35,7.10
2012,07,05,05,36,7.10
2012,07,05,05,37,7.10
2012,07,05,05,38,7.10
2012,07,05,05,39,7.10
2012,07,05,05,40,7.10
2012,07,05,05,41,7.10
2012,07,05,05,42,7.10
2012,07,05,05,43,7.10
2012,07,05,05,44,7.10
2012,07,05,05,45,7.10
2012,07,05,05,46,7.10
2012,07,05,05,47,7.10
2012,07,05,05,48,7.10
2012,07,05,05,49,7.10
2012,07,05,05,50,7.10
2012,07,05,05,51,7.10
2012,07,05,05,52,7.10
2012,07,05,05,53,7.10
2012,07,05,05,54,7.10
2012,07,05,05,55,7.00
2012,07,05,05,56,7.00
2012,07,05,05,57,7.00
2012,07,05,05,58,7.00
2012,07,05,05,59,7.00
2012,07,05,06,00,7.00
2012,07,05,06,01,7.00
2012,07,05,06,02,7.00
2012,07,05,06,03,7.00
2012,07,05,06,04,7.00
2012,07,05,06,05,7.00
2012,07,05,06,06,7.00
2012,07,05,06,07,7.00
2012,07,05,06,08,7.00
2012,07,05,06,09,7.00
2012,07,05,06,10,7.00
2012,07,05,06,11,7.00
2012,07,05,06,12,7.00
2012,07,05,06,13,7.00
2012,07,05,06,14,7.00
2012,07,05,06,15,7.00
2012,07,05,06,16,7.10
2012,07,05,06,17,7.10
2012,07,05,06,18,7.10
2012,07,05,06,19,7.10
2012,07,05,06,20,7.10
2012,07,05,06,21,7.10
2012,07,05,06,22,7.10
2012,07,05,06,23,7.10
2012,07,05,06,24,7.10
2012,07,05,06,25,7.10
2012,07,05,06,26,7.10
2012,07,05,06,27,7.20
2012,07,05,06,28,7.20
2012,07,05,06,29,7.20
2012,07,05,06,30,7.20
2012,07,05,06,31,7.20
2012,07,05,06,32,7.20
2012,07,05,06,33,7.20
2012,07,05,06,34,7.20
2012,07,05,06,35,7.20
2012,07,05,06,36,7.20
2012,07,05,06,37,7.20
2012,07,05,06,38,7.20
2012,07,05,06,39,7.20
2012,07,05,06,40,7.20
2012,07,05,06,41,7.20
2012,07,05,06,42,7.30
2012,07,05,06,43,7.30
2012,07,05,06,44,7.30
2012,07,05,06,45,7.30
2012,07,05,06,46,7.30
2012,07,05,06,47,7.30
2012,07,05,06,48,7.40
2012,07,05,06,49,7.40
2012,07,05,06,50,7.40
2012,07,05,06,51,7.40
2012,07,05,06,52,7.40
2012,07,05,06,53,7.50
2012,07,05,06,54,7.50
2012,07,05,06,55,7.50
2012,07,05,06,56,7.60
2012,07,05,06,57,7.60
2012,07,05,06,58,7.60
2012,07,05,06,59,7.60
2012,07,05,07,00,7.60
2012,07,05,07,01,7.70
2012,07,05,07,02,7.70
2012,07,05,07,03,7.70
2012,07,05,07,04,7.70
2012,07,05,07,05,7.70
2012,07,05,07,06,7.80
2012,07,05,07,07,7.80
2012,07,05,07,08,7.90
2012,07,05,07,09,7.90
2012,07,05,07,10,7.90
2012,07,05,07,11,7.90
2012,07,05,07,12,8.00
2012,07,05,07,13,8.00
2012,07,05,07,14,8.00
2012,07,05,07,15,8.10
2012,07,05,07,16,8.10
2012,07,05,07,17,8.10
2012,07,05,07,18,8.10
2012,07,05,07,19,8.20
2012,07,05,07,20,8.20
2012,07,05,07,21,8.20
2012,07,05,07,22,8.30
2012,07,05,07,23,8.30
2012,07,05,07,24,8.30
2012,07,05,07,25,8.30
2012,07,05,07,26,8.30
2012,07,05,07,27,8.40
2012,07,05,07,28,8.40
2012,07,05,07,29,8.40
2012,07,05,07,30,8.50
2012,07,05,07,31,8.50
2012,07,05,07,32,8.60
2012,07,05,07,33,8.60
2012,07,05,07,34,8.70
2012,07,05,07,35,8.70
2012,07,05,07,36,8.70
2012,07,05,07,37,8.80
2012,07,05,07,38,8.80
2012,07,05,07,39,8.80
2012,07,05,07,40,8.90
2012,07,05,07,41,8.90
2012,07,05,07,42,8.90
2012,07,05,07,43,9.00
2012,07,05,07,44,9.00
2012,07,05,07,45,9.10
2012,07,05,07,46,9.10
2012,07,05,07,47,9.10
2012,07,05,07,48,9.20
2012,07,05,07,49,9.20
2012,07,05,07,50,9.30
2012,07,05,07,51,9.30
2012,07,05,07,52,9.40
2012,07,05,07,53,9.40
2012,07,05,07,54,9.50
2012,07,05,07,55,9.60
2012,07,05,07,56,9.60
2012,07,05,07,57,9.70
2012,07,05,07,58,9.80
2012,07,05,07,59,9.80
2012,07,05,08,00,9.90
2012,07,05,08,01,10.00
2012,07,05,08,02,10.10
2012,07,05,08,03,10.20
2012,07,05,08,04,10.30
2012,07,05,08,05,10.40
2012,07,05,08,06,10.40
2012,07,05,08,07,10.50
2012,07,05,08,08,10.60
2012,07,05,08,09,10.70
2012,07,05,08,10,10.80
2012,07,05,08,11,10.90
2012,07,05,08,12,11.00
2012,07,05,08,13,11.10
2012,07,05,08,14,11.20
2012,07,05,08,15,11.30
2012,07,05,08,16,11.50
2012,07,05,08,17,11.60
2012,07,05,08,18,11.80
2012,07,05,08,19,11.90
2012,07,05,08,20,12.10
2012,07,05,08,21,12.20
2012,07,05,08,22,12.40
2012,07,05,08,23,12.60
2012,07,05,08,24,12.70
2012,07,05,08,25,12.80
2012,07,05,08,26,13.00
2012,07,05,08,27,13.00
2012,07,05,08,28,13.10
2012,07,05,08,29,13.20
2012,07,05,08,30,13.30
2012,07,05,08,31,13.40
2012,07,05,08,32,13.50
2012,07,05,08,33,13.60
2012,07,05,08,34,13.70
2012,07,05,08,35,13.80
2012,07,05,08,36,13.90
2012,07,05,08,37,13.90
2012,07,05,08,38,14.00
2012,07,05,08,39,14.10
2012,07,05,08,40,14.20
2012,07,05,08,41,14.20
2012,07,05,08,42,14.30
2012,07,05,08,43,14.40
2012,07,05,08,44,14.60
2012,07,05,08,45,14.70
2012,07,05,08,46,14.80
2012,07,05,08,47,15.00
2012,07,05,08,48,15.00
2012,07,05,08,49,15.00
2012,07,05,08,50,15.10
2012,07,05,08,51,15.20
2012,07,05,08,52,15.30
2012,07,05,08,53,15.30
2012,07,05,08,54,15.40
2012,07,05,08,55,15.40
2012,07,05,08,56,15.40
2012,07,05,08,57,15.50
2012,07,05,08,58,15.50
2012,07,05,08,59,15.60
2012,07,05,09,00,15.60
2012,07,05,09,01,15.70
2012,07,05,09,02,15.70
2012,07,05,09,03,15.80
2012,07,05,09,04,15.80
2012,07,05,09,05,15.90
2012,07,05,09,06,15.90
2012,07,05,09,07,16.00
2012,07,05,09,08,16.00
2012,07,05,09,09,16.10
2012,07,05,09,10,16.10
2012,07,05,09,11,16.10
2012,07,05,09,12,16.20
2012,07,05,09,13,16.20
2012,07,05,09,14,16.20
2012,07,05,09,15,16.20
2012,07,05,09,16,16.20
2012,07,05,09,17,16.20
2012,07,05,09,18,16.20
2012,07,05,09,19,16.20
2012,07,05,09,20,16.20
2012,07,05,09,21,16.20
2012,07,05,09,22,16.20
2012,07,05,09,23,16.20
2012,07,05,09,24,16.20
2012,07,05,09,25,16.20
2012,07,05,09,26,16.20
2012,07,05,09,27,16.30
2012,07,05,09,28,16.30
2012,07,05,09,29,16.30
2012,07,05,09,30,16.40
2012,07,05,09,31,16.40
2012,07,05,09,32,16.40
2012,07,05,09,33,16.40
2012,07,05,09,34,16.30
2012,07,05,09,35,16.30
2012,07,05,09,36,16.40
2012,07,05,09,37,16.40
2012,07,05,09,38,16.50
2012,07,05,09,39,16.50
2012,07,05,09,40,16.60
2012,07,05,09,41,16.60
2012,07,05,09,42,16.70
2012,07,05,09,43,16.80
2012,07,05,09,44,16.80
2012,07,05,09,45,16.80
2012,07,05,09,46,16.80
2012,07,05,09,47,16.80
2012,07,05,09,48,16.80
2012,07,05,09,49,16.80
2012,07,05,09,50,16.70
2012,07,05,09,51,16.70
2012,07,05,09,52,16.70
2012,07,05,09,53,16.70
2012,07,05,09,54,16.70
2012,07,05,09,55,16.70
2012,07,05,09,56,16.70
2012,07,05,09,57,16.70
2012,07,05,09,58,16.80
2012,07,05,09,59,16.80
2012,07,05,10,00,16.90
2012,07,05,10,01,16.90
2012,07,05,10,02,17.00
2012,07,05,10,03,17.00
2012,07,05,10,04,17.00
2012,07,05,10,05,17.00
2012,07,05,10,06,16.90
2012,07,05,10,07,16.90
2012,07,05,10,08,16.80
2012,07,05,10,09,16.80
2012,07,05,10,10,16.80
2012,07,05,10,11,16.80
2012,07,05,10,12,16.90
2012,07,05,10,13,16.90
2012,07,05,10,14,16.90
2012,07,05,10,15,16.90
2012,07,05,10,16,17.00
2012,07,05,10,17,17.00
2012,07,05,10,18,17.10
2012,07,05,10,19,17.10
2012,07,05,10,20,17.20
2012,07,05,10,21,17.20
2012,07,05,10,22,17.20
2012,07,05,10,23,17.20
2012,07,05,10,24,17.30
2012,07,05,10,25,17.40
2012,07,05,10,26,17.40
2012,07,05,10,27,17.40
2012,07,05,10,28,17.40
2012,07,05,10,29,17.40
2012,07,05,10,30,17.30
2012,07,05,10,31,17.30
2012,07,05,10,32,17.20
2012,07,05,10,33,17.20
2012,07,05,10,34,17.10
2012,07,05,10,35,17.10
2012,07,05,10,36,17.10
2012,07,05,10,37,17.10
2012,07,05,10,38,17.10
2012,07,05,10,39,17.20
2012,07,05,10,40,17.30
2012,07,05,10,41,17.40
2012,07,05,10,42,17.50
2012,07,05,10,43,17.50
2012,07,05,10,44,17.50
2012,07,05,10,45,17.50
2012,07,05,10,46,17.60
2012,07,05,10,47,17.60
2012,07,05,10,48,17.60
2012,07,05,10,49,17.60
2012,07,05,10,50,17.60
2012,07,05,10,51,17.70
2012,07,05,10,52,17.80
2012,07,05,10,53,17.80
2012,07,05,10,54,17.80
2012,07,05,10,55,17.90
2012,07,05,10,56,17.90
2012,07,05,10,57,17.90
2012,07,05,10,58,18.00
2012,07,05,10,59,18.00
2012,07,05,11,00,18.10
2012,07,05,11,01,18.20
2012,07,05,11,02,18.20
2012,07,05,11,03,18.30
2012,07,05,11,04,18.30
2012,07,05,11,05,18.30
2012,07,05,11,06,18.40
2012,07,05,11,07,18.50
2012,07,05,11,08,18.50
2012,07,05,11,09,18.60
2012,07,05,11,10,18.50
2012,07,05,11,11,18.50
2012,07,05,11,12,18.40
2012,07,05,11,13,18.40
2012,07,05,11,14,18.40
2012,07,05,11,15,18.40
2012,07,05,11,16,18.50
2012,07,05,11,17,18.60
2012,07,05,11,18,18.60
2012,07,05,11,19,18.70
2012,07,05,11,20,18.70
2012,07,05,11,21,18.70
2012,07,05,11,22,18.70
2012,07,05,11,23,18.70
2012,07,05,11,24,18.70
2012,07,05,11,25,18.70
2012,07,05,11,26,18.70
2012,07,05,11,27,18.70
2012,07,05,11,28,18.70
2012,07,05,11,29,18.80
2012,07,05,11,30,18.90
2012,07,05,11,31,18.90
2012,07,05,11,32,18.90
2012,07,05,11,33,18.90
2012,07,05,11,34,19.00
2012,07,05,11,35,19.00
2012,07,05,11,36,19.10
2012,07,05,11,37,19.10
2012,07,05,11,38,19.10
2012,07,05,11,39,19.20
2012,07,05,11,40,19.10
2012,07,05,11,41,19.10
2012,07,05,11,42,19.10
2012,07,05,11,43,19.10
2012,07,05,11,44,19.10
2012,07,05,11,45,19.10
2012,07,05,11,46,19.10
2012,07,05,11,47,19.20
2012,07,05,11,48,19.20
2012,07,05,11,49,19.20
2012,07,05,11,50,19.20
2012,07,05,11,51,19.20
2012,07,05,11,52,19.10
2012,07,05,11,53,19.10
2012,07,05,11,54,19.20
2012,07,05,11,55,19.10
2012,07,05,11,56,19.10
2012,07,05,11,57,19.10
2012,07,05,11,58,19.10
2012,07,05,11,59,19.10
2012,07,05,12,00,19.10
2012,07,05,12,01,19.10
2012,07,05,12,02,19.20
2012,07,05,12,03,19.20
2012,07,05,12,04,19.30
2012,07,05,12,05,19.30
2012,07,05,12,06,19.40
2012,07,05,12,07,19.40
2012,07,05,12,08,19.40
2012,07,05,12,09,19.40
2012,07,05,12,10,19.50
2012,07,05,12,11,19.50
2012,07,05,12,12,19.60
2012,07,05,12,13,19.60
2012,07,05,12,14,19.50
2012,07,05,12,15,19.50
2012,07,05,12,16,19.50
2012,07,05,12,17,19.50
2012,07,05,12,18,19.60
2012,07,05,12,19,19.70
2012,07,05,12,20,19.70
2012,07,05,12,21,19.70
2012,07,05,12,22,19.70
2012,07,05,12,23,19.80
2012,07,05,12,24,19.80
2012,07,05,12,25,19.90
2012,07,05,12,26,20.00
2012,07,05,12,27,20.00
2012,07,05,12,28,20.10
2012,07,05,12,29,20.10
2012,07,05,12,30,20.10
2012,07,05,12,31,20.10
2012,07,05,12,32,20.10
2012,07,05,12,33,20.20
2012,07,05,12,34,20.30
2012,07,05,12,35,20.40
2012,07,05,12,36,20.40
2012,07,05,12,37,20.30
2012,07,05,12,38,20.20
2012,07,05,12,39,20.10
2012,07,05,12,40,20.00
2012,07,05,12,41,19.90
2012,07,05,12,42,19.90
2012,07,05,12,43,19.90
2012,07,05,12,44,19.90
2012,07,05,12,45,19.90
2012,07,05,12,46,19.80
2012,07,05,12,47,19.80
2012,07,05,12,48,19.80
2012,07,05,12,49,19.70
2012,07,05,12,50,19.70
2012,07,05,12,51,19.70
2012,07,05,12,52,19.70
2012,07,05,12,53,19.80
2012,07,05,12,54,19.80
2012,07,05,12,55,19.70
2012,07,05,12,56,19.70
2012,07,05,12,57,19.70
2012,07,05,12,58,19.70
2012,07,05,12,59,19.70
2012,07,05,13,00,19.70
2012,07,05,13,01,19.70
2012,07,05,13,02,19.80
2012,07,05,13,03,19.80
2012,07,05,13,04,19.90
2012,07,05,13,05,19.90
2012,07,05,13,06,19.90
2012,07,05,13,07,20.00
2012,07,05,13,08,20.00
2012,07,05,13,09,20.10
2012,07,05,13,10,20.20
2012,07,05,13,11,20.20
2012,07,05,13,12,20.20
2012,07,05,13,13,20.30
2012,07,05,13,14,20.30
2012,07,05,13,15,20.30
2012,07,05,13,16,20.40
2012,07,05,13,17,20.40
2012,07,05,13,18,20.40
2012,07,05,13,19,20.60
2012,07,05,13,20,20.70
2012,07,05,13,21,20.80
2012,07,05,13,22,20.90
2012,07,05,13,23,20.90
2012,07,05,13,24,20.90
2012,07,05,13,25,20.90
2012,07,05,13,26,20.90
2012,07,05,13,27,20.90
2012,07,05,13,28,20.80
2012,07,05,13,29,20.60
2012,07,05,13,30,20.60
2012,07,05,13,31,20.60
2012,07,05,13,32,20.60
2012,07,05,13,33,20.60
2012,07,05,13,34,20.60
2012,07,05,13,35,20.60
2012,07,05,13,36,20.60
2012,07,05,13,37,20.60
2012,07,05,13,38,20.60
2012,07,05,13,39,20.60
2012,07,05,13,40,20.70
2012,07,05,13,41,20.70
2012,07,05,13,42,20.70
2012,07,05,13,43,20.70
2012,07,05,13,44,20.70
2012,07,05,13,45,20.70
2012,07,05,13,46,20.60
2012,07,05,13,47,20.60
2012,07,05,13,48,20.50
2012,07,05,13,49,20.40
2012,07,05,13,50,20.40
2012,07,05,13,51,20.40
2012,07,05,13,52,20.40
2012,07,05,13,53,20.40
2012,07,05,13,54,20.50
2012,07,05,13,55,20.50
2012,07,05,13,56,20.60
2012,07,05,13,57,20.60
2012,07,05,13,58,20.60
2012,07,05,13,59,20.70
2012,07,05,14,00,20.80
2012,07,05,14,01,20.90
2012,07,05,14,02,21.00
2012,07,05,14,03,21.10
2012,07,05,14,04,21.20
2012,07,05,14,05,21.20
2012,07,05,14,06,21.20
2012,07,05,14,07,21.30
2012,07,05,14,08,21.30
2012,07,05,14,09,21.30
2012,07,05,14,10,21.20
2012,07,05,14,11,21.20
2012,07,05,14,12,21.20
2012,07,05,14,13,21.20
2012,07,05,14,14,21.20
2012,07,05,14,15,21.20
2012,07,05,14,16,21.20
2012,07,05,14,17,21.20
2012,07,05,14,18,21.20
2012,07,05,14,19,21.20
2012,07,05,14,20,21.20
2012,07,05,14,21,21.20
2012,07,05,14,22,21.10
2012,07,05,14,23,21.10
2012,07,05,14,24,21.20
2012,07,05,14,25,21.20
2012,07,05,14,26,21.20
2012,07,05,14,27,21.30
2012,07,05,14,28,21.30
2012,07,05,14,29,21.30
2012,07,05,14,30,21.40
2012,07,05,14,31,21.40
2012,07,05,14,32,21.40
2012,07,05,14,33,21.40
2012,07,05,14,34,21.50
2012,07,05,14,35,21.50
2012,07,05,14,36,21.50
2012,07,05,14,37,21.40
2012,07,05,14,38,21.30
2012,07,05,14,39,21.30
2012,07,05,14,40,21.30
2012,07,05,14,41,21.30
2012,07,05,14,42,21.30
2012,07,05,14,43,21.30
2012,07,05,14,44,21.30
2012,07,05,14,45,21.40
2012,07,05,14,46,21.40
2012,07,05,14,47,21.40
2012,07,05,14,48,21.40
2012,07,05,14,49,21.40
2012,07,05,14,50,21.40
2012,07,05,14,51,21.40
2012,07,05,14,52,21.40
2012,07,05,14,53,21.50
2012,07,05,14,54,21.40
2012,07,05,14,55,21.40
2012,07,05,14,56,21.40
2012,07,05,14,57,21.40
2012,07,05,14,58,21.40
2012,07,05,14,59,21.40
2012,07,05,15,00,21.40
2012,07,05,15,01,21.40
2012,07,05,15,02,21.50
2012,07,05,15,03,21.60
2012,07,05,15,04,21.60
2012,07,05,15,05,21.60
2012,07,05,15,06,21.60
2012,07,05,15,07,21.60
2012,07,05,15,08,21.70
2012,07,05,15,09,21.70
2012,07,05,15,10,21.70
2012,07,05,15,11,21.60
2012,07,05,15,12,21.60
2012,07,05,15,13,21.60
2012,07,05,15,14,21.60
2012,07,05,15,15,21.70
2012,07,05,15,16,21.70
2012,07,05,15,17,21.70
2012,07,05,15,18,21.70
2012,07,05,15,19,21.60
2012,07,05,15,20,21.70
2012,07,05,15,21,21.70
2012,07,05,15,22,21.60
2012,07,05,15,23,21.60
2012,07,05,15,24,21.60
2012,07,05,15,25,21.70
2012,07,05,15,26,21.70
2012,07,05,15,27,21.70
2012,07,05,15,28,21.70
2012,07,05,15,29,21.80
2012,07,05,15,30,21.90
2012,07,05,15,31,22.00
2012,07,05,15,32,22.00
2012,07,05,15,33,22.10
2012,07,05,15,34,22.20
2012,07,05,15,35,22.20
2012,07,05,15,36,22.20
2012,07,05,15,37,22.20
2012,07,05,15,38,22.20
2012,07,05,15,39,22.30
2012,07,05,15,40,22.30
2012,07,05,15,41,22.30
2012,07,05,15,42,22.40
2012,07,05,15,43,22.40
2012,07,05,15,44,22.30
2012,07,05,15,45,22.20
2012,07,05,15,46,22.20
2012,07,05,15,47,22.20
2012,07,05,15,48,22.20
2012,07,05,15,49,22.10
2012,07,05,15,50,22.10
2012,07,05,15,51,22.10
2012,07,05,15,52,22.00
2012,07,05,15,53,21.90
2012,07,05,15,54,21.80
2012,07,05,15,55,21.80
2012,07,05,15,56,21.70
2012,07,05,15,57,21.70
2012,07,05,15,58,21.70
2012,07,05,15,59,21.80
2012,07,05,16,00,21.80
2012,07,05,16,01,21.80
2012,07,05,16,02,21.80
2012,07,05,16,03,21.80
2012,07,05,16,04,21.80
2012,07,05,16,05,21.80
2012,07,05,16,06,21.80
2012,07,05,16,07,21.80
2012,07,05,16,08,21.80
2012,07,05,16,09,21.80
2012,07,05,16,10,21.80
2012,07,05,16,11,21.80
2012,07,05,16,12,21.80
2012,07,05,16,13,21.70
2012,07,05,16,14,21.70
2012,07,05,16,15,21.70
2012,07,05,16,16,21.70
2012,07,05,16,17,21.70
2012,07,05,16,18,21.80
2012,07,05,16,19,21.80
2012,07,05,16,20,21.80
2012,07,05,16,21,21.80
2012,07,05,16,22,21.80
2012,07,05,16,23,21.80
2012,07,05,16,24,21.80
2012,07,05,16,25,21.80
2012,07,05,16,26,21.90
2012,07,05,16,27,21.90
2012,07,05,16,28,22.00
2012,07,05,16,29,22.00
2012,07,05,16,30,22.00
2012,07,05,16,31,22.00
2012,07,05,16,32,22.10
2012,07,05,16,33,22.20
2012,07,05,16,34,22.10
2012,07,05,16,35,22.10
2012,07,05,16,36,22.10
2012,07,05,16,37,22.10
2012,07,05,16,38,22.10
2012,07,05,16,39,22.10
2012,07,05,16,40,22.10
2012,07,05,16,41,22.10
2012,07,05,16,42,22.10
2012,07,05,16,43,22.10
2012,07,05,16,44,22.20
2012,07,05,16,45,22.20
2012,07,05,16,46,22.20
2012,07,05,16,47,22.40
2012,07,05,16,48,22.50
2012,07,05,16,49,22.50
2012,07,05,16,50,22.50
2012,07,05,16,51,22.50
2012,07,05,16,52,22.50
2012,07,05,16,53,22.40
2012,07,05,16,54,22.50
2012,07,05,16,55,22.50
2012,07,05,16,56,22.50
2012,07,05,16,57,22.50
2012,07,05,16,58,22.40
2012,07,05,16,59,22.40
2012,07,05,17,00,22.40
2012,07,05,17,01,22.40
2012,07,05,17,02,22.40
2012,07,05,17,03,22.40
2012,07,05,17,04,22.30
2012,07,05,17,05,22.20
2012,07,05,17,06,22.20
2012,07,05,17,07,22.20
2012,07,05,17,08,22.20
2012,07,05,17,09,22.20
2012,07,05,17,10,22.20
2012,07,05,17,11,22.20
2012,07,05,17,12,22.20
2012,07,05,17,13,22.20
2012,07,05,17,14,22.20
2012,07,05,17,15,22.30
2012,07,05,17,16,22.20
2012,07,05,17,17,22.20
2012,07,05,17,18,22.10
2012,07,05,17,19,22.10
2012,07,05,17,20,22.10
2012,07,05,17,21,22.00
2012,07,05,17,22,22.00
2012,07,05,17,23,21.90
2012,07,05,17,24,21.90
2012,07,05,17,25,21.90
2012,07,05,17,26,21.90
2012,07,05,17,27,22.00
2012,07,05,17,28,22.00
2012,07,05,17,29,22.10
2012,07,05,17,30,22.10
2012,07,05,17,31,22.00
2012,07,05,17,32,22.00
2012,07,05,17,33,22.00
2012,07,05,17,34,21.90
2012,07,05,17,35,22.00
2012,07,05,17,36,22.00
2012,07,05,17,37,22.10
2012,07,05,17,38,22.20
2012,07,05,17,39,22.20
2012,07,05,17,40,22.30
2012,07,05,17,41,22.40
2012,07,05,17,42,22.40
2012,07,05,17,43,22.40